#timestamp,LO_Frequency,Hit,StdDev 
1507485615.3,286046999.0,N
1507485635.2,286047000.7,N
1507485655.9,286046999.9,N
1507485675.7,286047002.3,N
1507485695.5,286046999.8,N
1507485715.4,286047003.2,N
1507485735.2,286047005.4,N
1507485755.0,286047005.1,N
1507485755.9,286047005.1,N
1507485775.8,286047006.8,N
1507485795.6,286047005.6,N
1507485815.4,286047002.9,N
1507485835.3,286047003.1,N
1507485855.1,286047005.7,N
1507485875.8,286047005.2,N
1507485895.7,286047007.1,N
1507485915.5,286047005.3,N
1507485935.3,286047001.7,N
1507485955.2,286047004.1,N
1507485975.9,286047003.4,N
1507485995.7,286047004.5,N
1507486015.6,286047006.4,N
1507486035.4,286047008.5,N
1507486055.2,286047010.4,N
1507486075.1,286047015.2,Y
1507486076.0,286047015.2,P
1507486095.8,286047007.8,N
1507486115.6,286047010.6,N
1507486135.4,286047009.6,N
1507486155.3,286047011.8,N
1507486175.1,286047009.6,N
1507486195.8,286047010.1,N
1507486215.7,286047011.9,Y
1507486235.5,286047000.3,P
1507486255.3,286046998.2,N
1507486275.2,286047001.1,N
1507486295.0,286047002.1,N
1507486295.9,286047002.1,N
1507486315.7,286047000.9,N
1507486335.6,286047000.6,N
1507486355.4,286047000.2,N
1507486375.2,286047003.7,N
1507486395.1,286047005.9,N
1507486396.0,286047005.9,N
1507486415.8,286047004.0,N
1507486435.6,286047002.5,N
1507486455.5,286046999.5,N
1507486475.3,286046996.6,N
1507486495.1,286046997.0,N
1507486515.9,286047000.3,N
1507486535.7,286047002.8,N
1507486555.5,286047000.4,N
1507486575.3,286046998.5,N
1507486595.2,286046998.9,N
1507486615.0,286046998.6,N
1507486615.9,286046998.6,N
1507486635.7,286046999.5,N
1507486655.6,286046998.8,N
1507486675.4,286046998.3,N
1507486695.2,286046999.0,N
1507486715.1,286046997.8,N
1507486716.0,286046997.8,N
1507486735.8,286046994.2,N
1507486755.6,286046997.4,N
1507486775.5,286047000.0,N
1507486795.3,286047003.1,N
1507486815.1,286047009.1,Y
1507486835.9,286047009.3,P
1507486855.7,286047016.6,P
1507486875.5,286047020.0,N
1507486895.4,286047017.7,N
1507486915.2,286047019.3,N
1507486935.0,286047022.7,Y
1507486935.9,286047022.7,P
1507486955.8,286047008.2,N
1507486975.6,286047006.7,N
1507486995.4,286047006.5,N
1507487015.3,286047004.6,N
1507487035.1,286047005.2,N
1507487036.0,286047005.2,N
1507487055.8,286047007.1,N
1507487075.7,286047007.1,N
1507487095.5,286047008.1,N
1507487115.3,286047007.1,N
1507487135.1,286047001.4,N
1507487155.9,286047005.7,N
1507487175.7,286047005.6,N
1507487195.5,286047007.5,N
1507487215.4,286047006.7,N
1507487235.2,286047009.0,N
1507487255.0,286047007.2,N
1507487255.9,286047007.2,N
1507487275.8,286047007.3,N
1507487295.6,286047007.6,N
1507487315.4,286047006.9,N
1507487335.3,286047010.0,N
1507487355.1,286047011.3,N
1507487356.0,286047011.3,N
1507487375.8,286047013.9,Y
1507487395.7,286047002.9,P
1507487415.5,286047004.1,N
1507487435.3,286047005.6,N
1507487455.2,286047001.8,N
1507487475.9,286046995.0,N
1507487495.7,286046994.7,N
1507487515.5,286046992.5,N
1507487535.4,286046989.6,N
1507487555.2,286046988.3,N
1507487575.0,286046986.3,N
1507487575.9,286046986.3,N
1507487595.8,286046984.3,N
1507487615.6,286046984.8,N
1507487635.4,286046984.7,N
1507487655.3,286046984.0,N
1507487675.1,286046981.1,N
1507487676.0,286046981.1,N
1507487695.8,286046980.2,N
1507487715.7,286046976.7,N
1507487735.5,286046976.9,N
1507487755.3,286046976.7,N
1507487775.2,286046975.9,N
1507487795.9,286046976.3,N
1507487815.7,286046974.5,N
1507487835.5,286046973.5,N
1507487855.4,286046974.0,N
1507487875.2,286046973.1,N
1507487895.0,286046973.6,N
1507487895.9,286046973.6,N
1507487915.8,286046971.2,N
1507487935.6,286046971.0,N
1507487955.4,286046970.9,Y
1507487975.3,286046988.9,P
1507487995.1,286046989.8,P
1507488015.8,286046987.1,P
1507488035.7,286046988.3,Y
1507488055.5,286047000.8,P
1507488075.3,286046999.9,N
1507488095.2,286047002.7,N
1507488115.9,286047003.7,N
1507488135.7,286047001.3,N
1507488155.6,286047002.4,N
1507488175.4,286047002.7,N
1507488195.2,286047002.5,N
1507488215.1,286047001.6,N
1507488216.0,286047001.6,N
1507488235.8,286047003.8,N
1507488255.6,286047005.7,N
1507488275.4,286047005.8,N
1507488295.3,286047007.4,N
1507488315.1,286047005.8,N
1507488335.8,286047004.6,N
1507488355.7,286047005.6,N
1507488375.5,286047004.0,N
1507488395.3,286047002.1,N
1507488415.2,286047001.8,N
1507488435.9,286047000.1,N
1507488455.7,286047000.4,N
1507488475.6,286047000.4,N
1507488495.4,286047000.9,N
1507488515.2,286047002.4,N
1507488535.0,286047002.1,N
1507488536.0,286047002.1,N
1507488555.8,286047002.9,N
1507488575.6,286047002.1,N
1507488595.4,286047001.6,N
1507488615.3,286047006.0,Y
1507488635.1,286047004.0,P
1507488655.8,286047002.6,P
1507488675.7,286046999.7,N
1507488695.5,286047000.5,N
1507488715.3,286046999.8,N
1507488735.2,286047002.4,N
1507488755.9,286047000.6,N
1507488775.7,286046999.7,N
1507488795.6,286047002.3,N
1507488815.4,286047000.3,N
1507488835.2,286047000.8,N
1507488855.1,286047000.2,N
1507488856.0,286047000.2,N
1507488875.8,286047002.0,N
1507488895.6,286047004.3,Y
1507488915.5,286047005.6,P
1507488935.3,286047001.6,N
1507488955.1,286047001.9,N
1507488975.9,286046998.5,N
1507488995.7,286046998.4,N
1507489015.5,286047000.7,N
1507489035.3,286047000.5,N
1507489055.2,286047000.9,N
1507489075.0,286047000.8,N
1507489075.9,286047000.8,N
1507489095.7,286047001.1,N
1507489115.6,286046997.5,N
1507489135.4,286046997.2,N
1507489155.2,286046995.3,N
1507489175.1,286046996.9,N
1507489176.0,286046996.9,N
1507489195.8,286047002.2,N
